This demonstration page uses our WeatherBlox Daily Observations layout. Learn more.

Left ArrowRight Arrow

39.29038, -76.61219

Hourly Observations for July 27, 2020

Temp ( °F °C ) Dew Point ( °F °C ) Humidity (%) Winds ( mph kmh ) Pressure ( in mb ) Visibility ( mi km ) Precip ( " mm )
12:54 am 00:54 Mostly Cloudy 78 25.6 69 20.6 74 74 WSW 3 6 29.94 1014 10 16 0.00 0.00
1:54 am 01:54 Mostly Cloudy 77 25 69 20.6 77 77 W 3 6 29.93 1014 10 16 0.00 0.00
2:54 am 02:54 Partly Cloudy 76 24.4 69 20.6 79 79 WNW 5 7 29.92 1013 10 16 0.00 0.00
3:54 am 03:54 Partly Cloudy 78 25.6 69 20.6 74 74 WSW 5 7 29.92 1013 10 16 0.00 0.00
4:54 am 04:54 Partly Cloudy 76 24.4 69 20.6 79 79 W 6 9 29.92 1013 10 16 0.00 0.00
5:54 am 05:54 Mostly Cloudy 76 24.4 67 19.4 74 74 W 5 7 29.93 1014 10 16 0.00 0.00
6:54 am 06:54 Mostly Cloudy 75 23.9 67 19.4 76 76 W 6 9 29.95 1014 10 16 0.00 0.00
7:54 am 07:54 Mostly Cloudy 81 27.2 68 20 65 65 WSW 5 7 29.96 1015 10 16 0.00 0.00
8:54 am 08:54 Mostly Cloudy 86 30 68 20 55 55 W 8 13 29.94 1014 10 16 0.00 0.00
9:54 am 09:54 Partly Cloudy 89 31.7 67 19.4 48 48 WNW 6 9 29.93 1014 10 16 0.00 0.00
10:54 am 10:54 Mostly Cloudy 90 32.2 67 19.4 47 47 W 8 13 29.92 1013 10 16 0.00 0.00
11:54 am 11:54 Mostly Cloudy 93 33.9 68 20 44 44 WNW 8 13 29.92 1013 10 16 0.00 0.00
12:54 pm 12:54 Mostly Cloudy 94 34.4 67 19.4 41 41 W 14 22 29.90 1013 10 16 0.00 0.00
1:54 pm 13:54 Mostly Cloudy 95 35 68 20 41 41 W 15 24 29.89 1012 10 16 0.00 0.00
2:54 pm 14:54 Mostly Cloudy 95 35 68 20 41 41 WSW 8 13 29.87 1011 10 16 0.00 0.00
3:54 pm 15:54 Mostly Cloudy 95 35 67 19.4 40 40 W 12 19 29.84 1010 10 16 0.00 0.00
4:54 pm 16:54 Mostly Sunny 96 35.6 66 18.9 37 37 W 14 22 29.81 1010 10 16 0.00 0.00
5:54 pm 17:54 Mostly Sunny 96 35.6 67 19.4 39 39 SSW 9 15 29.80 1009 10 16 0.00 0.00
6:54 pm 18:54 Mostly Sunny 94 34.4 68 20 43 43 SW 12 19 29.80 1009 10 16 0.00 0.00
7:54 pm 19:54 Mostly Sunny 92 33.3 67 19.4 44 44 SW 7 11 29.81 1009 10 16 0.00 0.00
8:54 pm 20:54 Mostly Clear 88 31.1 68 20 52 52 SSW 3 6 29.82 1010 10 16 0.00 0.00
9:54 pm 21:54 Mostly Clear 86 30 69 20.6 57 57 SSW 5 7 29.81 1010 10 16 0.00 0.00
10:54 pm 22:54 Mostly Clear 84 28.9 69 20.6 61 61 SSW 5 7 29.82 1010 10 16 0.00 0.00
11:54 pm 23:54 Mostly Clear 82 27.8 70 21.1 67 67 Calm 29.82 1010 10 16 0.00 0.00

Powered by AerisWeather